Time,TemperatureF,DewpointF,PressureIn,WindDirection,WindDirectionDegrees,WindSpeedMPH,WindSpeedGustMPH,Humidity,HourlyPrecipIn,Conditions,Clouds,dailyrainin,SoftwareType,DateUTC
2013-04-06 00:03:00,48.4,47.6,29.74,SSE,150,1.0,2.0,97,0.16,,,0.01,Wunderground v.1.15,2013-04-06 07:03:00,
2013-04-06 00:09:00,48.4,47.6,29.73,SW,233,0.0,2.0,97,0.12,,,0.02,Wunderground v.1.15,2013-04-06 07:09:00,
2013-04-06 00:15:00,48.3,47.5,29.73,WSW,241,0.0,1.0,97,0.13,,,0.03,Wunderground v.1.15,2013-04-06 07:15:00,
2013-04-06 00:21:00,48.3,47.5,29.73,SW,224,0.0,1.0,97,0.11,,,0.04,Wunderground v.1.15,2013-04-06 07:21:00,
2013-04-06 00:26:00,48.2,47.4,29.72,SSE,156,0.0,1.0,97,0.11,,,0.05,Wunderground v.1.15,2013-04-06 07:26:00,
2013-04-06 00:31:00,48.2,47.4,29.72,SW,214,0.0,0.0,97,0.07,,,0.06,Wunderground v.1.15,2013-04-06 07:31:00,
2013-04-06 00:37:00,48.1,47.3,29.72,South,172,0.0,1.0,97,0.07,,,0.06,Wunderground v.1.15,2013-04-06 07:37:00,
2013-04-06 00:42:00,48.2,47.4,29.71,SSE,160,1.0,2.0,97,0.05,,,0.06,Wunderground v.1.15,2013-04-06 07:42:00,
2013-04-06 00:48:00,48.3,47.5,29.70,South,175,2.0,4.0,97,0.00,,,0.06,Wunderground v.1.15,2013-04-06 07:48:00,
2013-04-06 00:54:00,48.3,47.5,29.70,SSE,157,2.0,4.0,97,0.00,,,0.06,Wunderground v.1.15,2013-04-06 07:54:00,
2013-04-06 00:59:00,48.4,47.6,29.70,SSW,192,2.0,4.0,97,0.00,,,0.07,Wunderground v.1.15,2013-04-06 07:59:00,
2013-04-06 01:05:00,48.4,47.6,29.70,SW,229,1.0,3.0,97,0.00,,,0.07,Wunderground v.1.15,2013-04-06 08:05:00,
2013-04-06 01:10:00,48.4,47.6,29.70,SW,234,1.0,2.0,97,0.00,,,0.07,Wunderground v.1.15,2013-04-06 08:10:00,
2013-04-06 01:16:00,48.3,47.5,29.69,West,263,2.0,4.0,97,0.21,,,0.09,Wunderground v.1.15,2013-04-06 08:16:00,
2013-04-06 01:21:00,48.5,47.7,29.70,SSE,163,3.0,9.0,97,0.08,,,0.09,Wunderground v.1.15,2013-04-06 08:21:00,
2013-04-06 01:26:00,48.9,47.5,29.69,SSE,153,7.0,13.0,95,0.05,,,0.09,Wunderground v.1.15,2013-04-06 08:26:00,
2013-04-06 01:32:00,48.9,47.5,29.70,West,273,8.0,8.0,95,0.00,,,0.09,Wunderground v.1.15,2013-04-06 08:32:00,
2013-04-06 01:38:00,48.9,47.5,29.69,SSE,150,5.0,8.0,95,0.00,,,0.10,Wunderground v.1.15,2013-04-06 08:38:00,
2013-04-06 01:43:00,49.0,47.3,29.68,SSE,158,4.0,9.0,94,0.00,,,0.10,Wunderground v.1.15,2013-04-06 08:43:00,
2013-04-06 01:48:00,49.0,47.6,29.68,SW,234,3.0,9.0,95,0.00,,,0.10,Wunderground v.1.15,2013-04-06 08:48:00,
2013-04-06 01:53:00,49.0,47.3,29.68,WSW,248,3.0,3.0,94,0.00,,,0.10,Wunderground v.1.15,2013-04-06 08:53:00,
2013-04-06 01:58:00,49.1,47.4,29.68,SSW,212,3.0,6.0,94,0.00,,,0.10,Wunderground v.1.15,2013-04-06 08:58:00,
2013-04-06 02:04:00,49.2,47.5,29.68,South,175,2.0,4.0,94,0.00,,,0.10,Wunderground v.1.15,2013-04-06 09:04:00,
2013-04-06 02:10:00,49.5,47.8,29.69,SW,214,3.0,3.0,94,0.00,,,0.10,Wunderground v.1.15,2013-04-06 09:10:00,
2013-04-06 02:15:00,49.6,47.9,29.69,South,176,4.0,7.0,94,0.00,,,0.10,Wunderground v.1.15,2013-04-06 09:15:00,
2013-04-06 02:20:00,49.6,47.9,29.69,WSW,247,4.0,4.0,94,0.23,,,0.12,Wunderground v.1.15,2013-04-06 09:20:00,
2013-04-06 02:25:00,49.5,48.1,29.70,South,188,4.0,5.0,95,0.10,,,0.12,Wunderground v.1.15,2013-04-06 09:25:00,
2013-04-06 02:30:00,49.5,48.1,29.70,SE,134,3.0,7.0,95,0.09,,,0.13,Wunderground v.1.15,2013-04-06 09:30:00,
2013-04-06 02:36:00,49.7,48.0,29.69,SSE,150,5.0,11.0,94,0.06,,,0.13,Wunderground v.1.15,2013-04-06 09:36:00,
2013-04-06 02:42:00,49.8,48.1,29.69,South,183,7.0,8.0,94,0.04,,,0.13,Wunderground v.1.15,2013-04-06 09:42:00,
2013-04-06 02:47:00,49.8,48.1,29.70,South,186,5.0,8.0,94,0.00,,,0.13,Wunderground v.1.15,2013-04-06 09:47:00,
2013-04-06 02:53:00,49.7,48.0,29.69,SE,138,3.0,5.0,94,0.00,,,0.13,Wunderground v.1.15,2013-04-06 09:53:00,
2013-04-06 02:59:00,49.7,48.0,29.70,South,179,4.0,12.0,94,0.00,,,0.13,Wunderground v.1.15,2013-04-06 09:59:00,
2013-04-06 03:04:00,49.6,47.9,29.70,SW,231,4.0,8.0,94,0.00,,,0.13,Wunderground v.1.15,2013-04-06 10:04:00,
2013-04-06 03:09:00,49.6,47.7,29.70,SSE,153,3.0,8.0,93,0.00,,,0.13,Wunderground v.1.15,2013-04-06 10:09:00,
2013-04-06 03:15:00,49.7,47.8,29.70,SE,145,4.0,11.0,93,0.00,,,0.13,Wunderground v.1.15,2013-04-06 10:15:00,
2013-04-06 03:20:00,49.7,47.8,29.71,WSW,243,5.0,6.0,93,0.00,,,0.13,Wunderground v.1.15,2013-04-06 10:20:00,
2013-04-06 03:26:00,49.6,47.7,29.72,SW,230,3.0,6.0,93,0.00,,,0.13,Wunderground v.1.15,2013-04-06 10:26:00,
2013-04-06 03:31:00,49.7,47.8,29.72,SSE,155,4.0,4.0,93,0.00,,,0.13,Wunderground v.1.15,2013-04-06 10:31:00,
2013-04-06 03:37:00,49.8,47.6,29.72,SSE,165,5.0,13.0,92,0.00,,,0.13,Wunderground v.1.15,2013-04-06 10:37:00,
2013-04-06 03:43:00,49.8,47.9,29.72,SSE,165,6.0,11.0,93,0.00,,,0.13,Wunderground v.1.15,2013-04-06 10:43:00,
2013-04-06 03:48:00,49.7,47.8,29.73,South,187,6.0,13.0,93,0.00,,,0.13,Wunderground v.1.15,2013-04-06 10:48:00,
2013-04-06 03:54:00,49.6,47.7,29.73,South,170,5.0,7.0,93,0.00,,,0.13,Wunderground v.1.15,2013-04-06 10:54:00,
2013-04-06 03:59:00,49.6,47.7,29.73,WNW,286,6.0,15.0,93,0.00,,,0.13,Wunderground v.1.15,2013-04-06 10:59:00,
2013-04-06 04:04:00,49.5,47.6,29.74,WSW,247,5.0,5.0,93,0.00,,,0.13,Wunderground v.1.15,2013-04-06 11:04:00,
2013-04-06 04:09:00,49.5,47.6,29.75,SE,125,3.0,5.0,93,0.00,,,0.13,Wunderground v.1.15,2013-04-06 11:09:00,
2013-04-06 04:14:00,49.5,47.6,29.75,SSW,194,3.0,7.0,93,0.00,,,0.13,Wunderground v.1.15,2013-04-06 11:14:00,
2013-04-06 04:19:00,49.5,47.6,29.76,SW,224,3.0,7.0,93,0.00,,,0.13,Wunderground v.1.15,2013-04-06 11:19:00,
2013-04-06 04:24:00,49.5,47.6,29.76,SSE,153,3.0,6.0,93,0.00,,,0.13,Wunderground v.1.15,2013-04-06 11:24:00,
2013-04-06 04:30:00,49.5,47.3,29.77,SW,216,3.0,11.0,92,0.00,,,0.14,Wunderground v.1.15,2013-04-06 11:30:00,
2013-04-06 04:33:00,49.4,47.2,29.77,West,272,4.0,11.0,92,0.24,,,0.15,Wunderground v.1.15,2013-04-06 11:33:00,
2013-04-06 04:38:00,49.1,47.2,29.78,NW,315,4.0,11.0,93,0.25,,,0.17,Wunderground v.1.15,2013-04-06 11:38:00,
2013-04-06 04:44:00,48.7,46.8,29.78,South,191,4.0,8.0,93,0.20,,,0.20,Wunderground v.1.15,2013-04-06 11:44:00,
2013-04-06 04:49:00,48.3,45.8,29.79,SSW,211,4.0,10.0,91,0.08,,,0.20,Wunderground v.1.15,2013-04-06 11:49:00,
2013-04-06 04:54:00,47.8,45.3,29.79,West,279,4.0,11.0,91,0.05,,,0.21,Wunderground v.1.15,2013-04-06 11:54:00,
2013-04-06 05:00:00,47.4,44.9,29.79,WSW,250,4.0,4.0,91,0.21,,,0.24,Wunderground v.1.15,2013-04-06 12:00:00,
2013-04-06 05:05:00,47.1,44.6,29.79,SSE,147,3.0,5.0,91,0.16,,,0.25,Wunderground v.1.15,2013-04-06 12:05:00,
2013-04-06 05:11:00,46.8,44.3,29.79,ESE,122,3.0,3.0,91,0.08,,,0.25,Wunderground v.1.15,2013-04-06 12:11:00,
2013-04-06 05:16:00,46.5,44.0,29.79,SW,223,3.0,6.0,91,0.05,,,0.25,Wunderground v.1.15,2013-04-06 12:16:00,
2013-04-06 05:22:00,46.4,44.2,29.80,SSW,204,3.0,7.0,92,0.00,,,0.25,Wunderground v.1.15,2013-04-06 12:22:00,
2013-04-06 05:27:00,46.0,44.1,29.80,SW,223,2.0,7.0,93,0.00,,,0.25,Wunderground v.1.15,2013-04-06 12:27:00,
2013-04-06 05:33:00,45.7,43.8,29.80,WNW,284,1.0,3.0,93,0.00,,,0.25,Wunderground v.1.15,2013-04-06 12:33:00,
2013-04-06 05:39:00,45.6,43.7,29.80,SW,221,2.0,4.0,93,0.00,,,0.25,Wunderground v.1.15,2013-04-06 12:39:00,
2013-04-06 05:45:00,45.5,43.9,29.80,SW,231,2.0,3.0,94,0.00,,,0.25,Wunderground v.1.15,2013-04-06 12:45:00,
2013-04-06 05:51:00,45.4,43.5,29.80,SSW,212,1.0,3.0,93,0.00,,,0.25,Wunderground v.1.15,2013-04-06 12:51:00,
2013-04-06 05:57:00,45.5,43.9,29.80,SW,230,2.0,4.0,94,0.00,,,0.25,Wunderground v.1.15,2013-04-06 12:57:00,
2013-04-06 06:02:00,45.6,44.0,29.81,SE,146,3.0,4.0,94,0.00,,,0.25,Wunderground v.1.15,2013-04-06 13:02:00,
2013-04-06 06:07:00,45.7,44.1,29.80,SW,229,3.0,6.0,94,0.00,,,0.25,Wunderground v.1.15,2013-04-06 13:07:00,
2013-04-06 06:13:00,45.6,44.0,29.80,South,184,2.0,3.0,94,0.00,,,0.26,Wunderground v.1.15,2013-04-06 13:13:00,
2013-04-06 06:19:00,45.7,44.1,29.80,SW,230,3.0,5.0,94,0.00,,,0.26,Wunderground v.1.15,2013-04-06 13:19:00,
2013-04-06 06:25:00,45.7,44.1,29.79,SW,219,2.0,11.0,94,0.00,,,0.26,Wunderground v.1.15,2013-04-06 13:25:00,
2013-04-06 06:31:00,45.8,43.9,29.79,South,176,3.0,3.0,93,0.00,,,0.26,Wunderground v.1.15,2013-04-06 13:31:00,
2013-04-06 06:36:00,45.8,43.9,29.79,SW,220,3.0,5.0,93,0.00,,,0.26,Wunderground v.1.15,2013-04-06 13:36:00,
2013-04-06 06:42:00,45.7,44.1,29.79,SE,124,3.0,8.0,94,0.00,,,0.26,Wunderground v.1.15,2013-04-06 13:42:00,
2013-04-06 06:47:00,45.7,44.1,29.78,WSW,238,4.0,8.0,94,0.00,,,0.26,Wunderground v.1.15,2013-04-06 13:47:00,
2013-04-06 06:52:00,45.7,44.1,29.78,SW,221,4.0,5.0,94,0.00,,,0.26,Wunderground v.1.15,2013-04-06 13:52:00,
2013-04-06 06:58:00,45.7,44.1,29.79,SSW,200,3.0,6.0,94,0.00,,,0.26,Wunderground v.1.15,2013-04-06 13:58:00,
2013-04-06 07:03:00,45.7,44.1,29.79,SW,231,4.0,5.0,94,0.00,,,0.26,Wunderground v.1.15,2013-04-06 14:03:00,
2013-04-06 07:09:00,45.8,44.2,29.80,SSW,203,4.0,10.0,94,0.00,,,0.26,Wunderground v.1.15,2013-04-06 14:09:00,
2013-04-06 07:14:00,45.8,44.2,29.80,SW,220,4.0,8.0,94,0.00,,,0.26,Wunderground v.1.15,2013-04-06 14:14:00,
2013-04-06 07:20:00,45.8,44.2,29.80,SW,219,4.0,4.0,94,0.00,,,0.26,Wunderground v.1.15,2013-04-06 14:20:00,
2013-04-06 07:25:00,45.8,44.2,29.80,SSW,209,4.0,8.0,94,0.00,,,0.26,Wunderground v.1.15,2013-04-06 14:25:00,
2013-04-06 07:30:00,45.9,44.3,29.80,SW,226,3.0,3.0,94,0.00,,,0.26,Wunderground v.1.15,2013-04-06 14:30:00,
2013-04-06 07:36:00,46.1,44.5,29.80,SW,224,2.0,11.0,94,0.00,,,0.26,Wunderground v.1.15,2013-04-06 14:36:00,
2013-04-06 07:42:00,46.3,44.7,29.80,SSW,203,3.0,5.0,94,0.00,,,0.26,Wunderground v.1.15,2013-04-06 14:42:00,
2013-04-06 07:47:00,46.4,44.8,29.80,SW,219,4.0,7.0,94,0.00,,,0.26,Wunderground v.1.15,2013-04-06 14:47:00,
2013-04-06 07:52:00,46.5,44.6,29.81,WSW,244,4.0,5.0,93,0.00,,,0.26,Wunderground v.1.15,2013-04-06 14:52:00,
2013-04-06 07:57:00,46.5,44.6,29.81,SSW,211,4.0,5.0,93,0.00,,,0.26,Wunderground v.1.15,2013-04-06 14:57:00,
2013-04-06 08:03:00,46.5,44.6,29.81,SW,227,4.0,5.0,93,0.00,,,0.26,Wunderground v.1.15,2013-04-06 15:03:00,
2013-04-06 08:09:00,46.7,44.5,29.81,SW,231,5.0,11.0,92,0.00,,,0.26,Wunderground v.1.15,2013-04-06 15:09:00,
2013-04-06 08:15:00,46.9,44.7,29.82,SSE,160,6.0,12.0,92,0.00,,,0.26,Wunderground v.1.15,2013-04-06 15:15:00,
2013-04-06 08:20:00,47.8,45.6,29.82,SW,229,5.0,5.0,92,0.00,,,0.26,Wunderground v.1.15,2013-04-06 15:20:00,
2013-04-06 08:26:00,48.5,46.0,29.82,SSE,158,3.0,9.0,91,0.00,,,0.26,Wunderground v.1.15,2013-04-06 15:26:00,
2013-04-06 08:31:00,49.2,46.4,29.82,SW,216,4.0,5.0,90,0.00,,,0.26,Wunderground v.1.15,2013-04-06 15:31:00,
2013-04-06 08:37:00,49.0,45.9,29.82,SW,232,4.0,8.0,89,0.00,,,0.26,Wunderground v.1.15,2013-04-06 15:37:00,
2013-04-06 08:43:00,48.8,45.7,29.83,SW,224,3.0,7.0,89,0.00,,,0.26,Wunderground v.1.15,2013-04-06 15:43:00,
2013-04-06 08:48:00,49.5,46.7,29.83,South,176,3.0,7.0,90,0.00,,,0.26,Wunderground v.1.15,2013-04-06 15:48:00,
2013-04-06 08:53:00,49.4,46.3,29.83,SSW,209,3.0,4.0,89,0.00,,,0.26,Wunderground v.1.15,2013-04-06 15:53:00,
2013-04-06 08:58:00,49.8,45.8,29.83,South,170,3.0,9.0,86,0.00,,,0.26,Wunderground v.1.15,2013-04-06 15:58:00,
2013-04-06 09:03:00,49.3,45.6,29.83,South,169,4.0,5.0,87,0.00,,,0.26,Wunderground v.1.15,2013-04-06 16:03:00,
2013-04-06 09:09:00,49.2,45.5,29.83,SSW,210,4.0,6.0,87,0.00,,,0.26,Wunderground v.1.15,2013-04-06 16:09:00,
2013-04-06 09:15:00,50.2,46.5,29.83,SW,227,5.0,7.0,87,0.00,,,0.26,Wunderground v.1.15,2013-04-06 16:15:00,
2013-04-06 09:20:00,51.0,47.3,29.83,SSW,193,5.0,5.0,87,0.00,,,0.26,Wunderground v.1.15,2013-04-06 16:20:00,
2013-04-06 09:26:00,51.1,46.7,29.84,South,177,6.0,13.0,85,0.00,,,0.26,Wunderground v.1.15,2013-04-06 16:26:00,
2013-04-06 09:31:00,51.5,46.8,29.84,SW,229,7.0,10.0,84,0.00,,,0.26,Wunderground v.1.15,2013-04-06 16:31:00,
2013-04-06 09:37:00,51.8,46.8,29.84,SSE,168,6.0,10.0,83,0.00,,,0.26,Wunderground v.1.15,2013-04-06 16:37:00,
2013-04-06 09:42:00,51.7,46.7,29.84,SSE,163,6.0,7.0,83,0.00,,,0.26,Wunderground v.1.15,2013-04-06 16:42:00,
2013-04-06 09:48:00,51.0,46.0,29.84,SE,143,7.0,15.0,83,0.00,,,0.26,Wunderground v.1.15,2013-04-06 16:48:00,
2013-04-06 09:54:00,51.3,46.3,29.85,SE,133,7.0,11.0,83,0.00,,,0.26,Wunderground v.1.15,2013-04-06 16:54:00,
2013-04-06 10:00:00,51.9,46.9,29.85,SSE,155,7.0,13.0,83,0.00,,,0.26,Wunderground v.1.15,2013-04-06 17:00:00,
2013-04-06 10:05:00,51.9,46.6,29.85,SW,225,9.0,16.0,82,0.00,,,0.26,Wunderground v.1.15,2013-04-06 17:05:00,
2013-04-06 10:11:00,51.3,46.3,29.85,SSE,160,12.0,14.0,83,0.00,,,0.26,Wunderground v.1.15,2013-04-06 17:11:00,
2013-04-06 10:17:00,50.7,46.7,29.86,SW,224,11.0,14.0,86,0.00,,,0.26,Wunderground v.1.15,2013-04-06 17:17:00,
2013-04-06 10:22:00,51.2,47.5,29.86,WSW,248,6.0,8.0,87,0.00,,,0.26,Wunderground v.1.15,2013-04-06 17:22:00,
2013-04-06 10:28:00,51.0,46.6,29.86,SW,216,4.0,8.0,85,0.00,,,0.26,Wunderground v.1.15,2013-04-06 17:28:00,
2013-04-06 10:33:00,50.8,46.5,29.86,SW,219,4.0,8.0,85,0.00,,,0.26,Wunderground v.1.15,2013-04-06 17:33:00,
2013-04-06 10:38:00,50.4,46.1,29.86,WSW,258,4.0,11.0,85,0.00,,,0.26,Wunderground v.1.15,2013-04-06 17:38:00,
2013-04-06 10:43:00,50.3,46.6,29.87,WSW,247,3.0,5.0,87,0.00,,,0.26,Wunderground v.1.15,2013-04-06 17:43:00,
2013-04-06 10:49:00,50.3,46.3,29.87,SSW,196,3.0,11.0,86,0.00,,,0.26,Wunderground v.1.15,2013-04-06 17:49:00,
2013-04-06 10:55:00,49.8,45.5,29.88,SSW,212,5.0,8.0,85,0.00,,,0.26,Wunderground v.1.15,2013-04-06 17:55:00,
2013-04-06 11:00:00,49.7,44.7,29.88,WSW,258,4.0,4.0,83,0.00,,,0.26,Wunderground v.1.15,2013-04-06 18:00:00,
2013-04-06 11:06:00,49.3,44.7,29.88,South,182,4.0,7.0,84,0.00,,,0.26,Wunderground v.1.15,2013-04-06 18:06:00,
2013-04-06 11:12:00,48.6,44.6,29.88,SW,218,3.0,8.0,86,0.16,,,0.28,Wunderground v.1.15,2013-04-06 18:12:00,
2013-04-06 11:18:00,48.3,45.2,29.88,SSE,168,3.0,8.0,89,0.09,,,0.28,Wunderground v.1.15,2013-04-06 18:18:00,
2013-04-06 11:23:00,48.5,45.7,29.88,SSE,158,3.0,3.0,90,0.05,,,0.28,Wunderground v.1.15,2013-04-06 18:23:00,
2013-04-06 11:29:00,48.7,45.6,29.89,SW,233,4.0,8.0,89,0.00,,,0.28,Wunderground v.1.15,2013-04-06 18:29:00,
2013-04-06 11:35:00,48.8,46.0,29.89,ESE,116,4.0,5.0,90,0.00,,,0.28,Wunderground v.1.15,2013-04-06 18:35:00,
2013-04-06 11:40:00,48.9,45.5,29.89,South,170,5.0,5.0,88,0.00,,,0.28,Wunderground v.1.15,2013-04-06 18:40:00,
2013-04-06 11:46:00,49.0,45.6,29.89,South,183,8.0,9.0,88,0.00,,,0.28,Wunderground v.1.15,2013-04-06 18:46:00,
2013-04-06 11:51:00,48.9,45.8,29.89,SSW,194,6.0,7.0,89,0.00,,,0.28,Wunderground v.1.15,2013-04-06 18:51:00,
2013-04-06 11:57:00,49.1,45.7,29.89,SSE,165,4.0,7.0,88,0.00,,,0.28,Wunderground v.1.15,2013-04-06 18:57:00,
2013-04-06 12:02:00,49.0,45.6,29.90,SW,231,3.0,5.0,88,0.00,,,0.29,Wunderground v.1.15,2013-04-06 19:02:00,
2013-04-06 12:07:00,48.5,44.8,29.90,West,259,3.0,8.0,87,0.14,,,0.30,Wunderground v.1.15,2013-04-06 19:07:00,
2013-04-06 12:12:00,48.4,45.3,29.89,SE,144,3.0,3.0,89,0.07,,,0.30,Wunderground v.1.15,2013-04-06 19:12:00,
2013-04-06 12:17:00,48.6,45.2,29.89,SW,217,2.0,4.0,88,0.04,,,0.30,Wunderground v.1.15,2013-04-06 19:17:00,
2013-04-06 12:23:00,48.7,45.9,29.89,SSW,200,2.0,2.0,90,0.00,,,0.30,Wunderground v.1.15,2013-04-06 19:23:00,
2013-04-06 12:29:00,48.5,45.1,29.89,SSE,156,3.0,6.0,88,0.00,,,0.30,Wunderground v.1.15,2013-04-06 19:29:00,
2013-04-06 12:34:00,48.1,44.1,29.89,WSW,241,4.0,10.0,86,0.00,,,0.30,Wunderground v.1.15,2013-04-06 19:34:00,
2013-04-06 12:39:00,47.6,43.9,29.89,SW,233,5.0,10.0,87,0.00,,,0.31,Wunderground v.1.15,2013-04-06 19:39:00,
2013-04-06 12:44:00,47.2,43.2,29.90,West,281,5.0,9.0,86,0.00,,,0.31,Wunderground v.1.15,2013-04-06 19:44:00,
2013-04-06 12:50:00,46.9,43.8,29.90,SSW,204,5.0,5.0,89,0.05,,,0.32,Wunderground v.1.15,2013-04-06 19:50:00,
2013-04-06 12:55:00,46.6,43.8,29.90,SSE,160,3.0,5.0,90,0.10,,,0.33,Wunderground v.1.15,2013-04-06 19:55:00,
2013-04-06 13:01:00,46.4,43.6,29.89,SW,228,3.0,3.0,90,0.09,,,0.33,Wunderground v.1.15,2013-04-06 20:01:00,
2013-04-06 13:07:00,46.3,43.8,29.90,South,173,4.0,6.0,91,0.05,,,0.33,Wunderground v.1.15,2013-04-06 20:07:00,
2013-04-06 13:13:00,46.4,43.6,29.90,SE,143,3.0,5.0,90,0.00,,,0.33,Wunderground v.1.15,2013-04-06 20:13:00,
2013-04-06 13:19:00,46.4,43.6,29.90,SW,216,4.0,7.0,90,0.00,,,0.33,Wunderground v.1.15,2013-04-06 20:19:00,
2013-04-06 13:25:00,46.5,43.7,29.90,SSW,193,4.0,8.0,90,0.00,,,0.33,Wunderground v.1.15,2013-04-06 20:25:00,
2013-04-06 13:30:00,46.7,44.2,29.90,SW,216,4.0,4.0,91,0.00,,,0.33,Wunderground v.1.15,2013-04-06 20:30:00,
2013-04-06 13:35:00,47.0,44.2,29.90,SW,219,4.0,6.0,90,0.00,,,0.33,Wunderground v.1.15,2013-04-06 20:35:00,
2013-04-06 13:41:00,47.5,44.4,29.90,NNE,13,4.0,4.0,89,0.00,,,0.33,Wunderground v.1.15,2013-04-06 20:41:00,
2013-04-06 13:46:00,47.9,44.8,29.90,South,191,5.0,10.0,89,0.00,,,0.33,Wunderground v.1.15,2013-04-06 20:46:00,
2013-04-06 13:52:00,48.5,45.1,29.90,SSE,155,6.0,7.0,88,0.00,,,0.33,Wunderground v.1.15,2013-04-06 20:52:00,
2013-04-06 13:57:00,48.9,45.5,29.89,West,274,6.0,8.0,88,0.00,,,0.33,Wunderground v.1.15,2013-04-06 20:57:00,
2013-04-06 14:02:00,49.5,46.1,29.89,SSE,165,6.0,6.0,88,0.00,,,0.33,Wunderground v.1.15,2013-04-06 21:02:00,
2013-04-06 14:07:00,50.1,46.4,29.89,South,186,5.0,6.0,87,0.00,,,0.33,Wunderground v.1.15,2013-04-06 21:07:00,
2013-04-06 14:13:00,50.5,45.8,29.89,SE,127,7.0,15.0,84,0.00,,,0.33,Wunderground v.1.15,2013-04-06 21:13:00,
2013-04-06 14:19:00,50.6,45.9,29.90,WNW,287,7.0,15.0,84,0.00,,,0.33,Wunderground v.1.15,2013-04-06 21:19:00,
2013-04-06 14:25:00,51.1,46.4,29.89,SSW,205,4.0,10.0,84,0.00,,,0.33,Wunderground v.1.15,2013-04-06 21:25:00,
2013-04-06 14:31:00,52.0,47.3,29.89,WSW,255,4.0,5.0,84,0.00,,,0.33,Wunderground v.1.15,2013-04-06 21:31:00,
2013-04-06 14:37:00,52.5,47.2,29.89,SSE,151,4.0,8.0,82,0.00,,,0.33,Wunderground v.1.15,2013-04-06 21:37:00,
2013-04-06 14:43:00,53.2,47.5,29.90,SSW,212,4.0,14.0,81,0.00,,,0.33,Wunderground v.1.15,2013-04-06 21:43:00,
2013-04-06 14:49:00,53.2,46.5,29.90,South,172,5.0,14.0,78,0.00,,,0.33,Wunderground v.1.15,2013-04-06 21:49:00,
2013-04-06 14:55:00,53.3,46.3,29.90,SSW,208,5.0,9.0,77,0.00,,,0.33,Wunderground v.1.15,2013-04-06 21:55:00,
2013-04-06 15:00:00,53.0,46.3,29.90,South,181,5.0,5.0,78,0.00,,,0.33,Wunderground v.1.15,2013-04-06 22:00:00,
2013-04-06 15:06:00,52.7,45.7,29.90,SE,143,4.0,13.0,77,0.00,,,0.33,Wunderground v.1.15,2013-04-06 22:06:00,
2013-04-06 15:12:00,52.8,46.1,29.90,SSW,204,3.0,4.0,78,0.00,,,0.33,Wunderground v.1.15,2013-04-06 22:12:00,
2013-04-06 15:17:00,53.2,46.5,29.90,SSW,209,3.0,6.0,78,0.00,,,0.33,Wunderground v.1.15,2013-04-06 22:17:00,
2013-04-06 15:23:00,52.9,45.5,29.90,SW,221,5.0,8.0,76,0.00,,,0.33,Wunderground v.1.15,2013-04-06 22:23:00,
2013-04-06 15:29:00,52.8,45.1,29.90,SSW,208,5.0,8.0,75,0.00,,,0.33,Wunderground v.1.15,2013-04-06 22:29:00,
2013-04-06 15:35:00,52.8,44.7,29.90,SW,219,6.0,13.0,74,0.00,,,0.33,Wunderground v.1.15,2013-04-06 22:35:00,
2013-04-06 15:41:00,52.8,45.4,29.90,SSE,153,6.0,6.0,76,0.00,,,0.33,Wunderground v.1.15,2013-04-06 22:41:00,
2013-04-06 15:46:00,53.2,45.8,29.90,SE,134,4.0,6.0,76,0.00,,,0.33,Wunderground v.1.15,2013-04-06 22:46:00,
2013-04-06 15:51:00,52.8,45.4,29.89,SE,144,5.0,12.0,76,0.00,,,0.33,Wunderground v.1.15,2013-04-06 22:51:00,
2013-04-06 15:57:00,52.3,45.0,29.90,South,175,6.0,12.0,76,0.00,,,0.33,Wunderground v.1.15,2013-04-06 22:57:00,
2013-04-06 16:02:00,51.4,46.1,29.90,WSW,240,6.0,7.0,82,0.00,,,0.33,Wunderground v.1.15,2013-04-06 23:02:00,
2013-04-06 16:08:00,50.6,46.3,29.90,West,274,5.0,7.0,85,0.00,,,0.34,Wunderground v.1.15,2013-04-06 23:08:00,
2013-04-06 16:14:00,49.8,45.2,29.90,SSW,209,4.0,7.0,84,0.09,,,0.35,Wunderground v.1.15,2013-04-06 23:14:00,
2013-04-06 16:19:00,49.5,45.5,29.90,SW,216,5.0,9.0,86,0.14,,,0.37,Wunderground v.1.15,2013-04-06 23:19:00,
2013-04-06 16:24:00,49.2,45.8,29.90,SSE,167,5.0,7.0,88,0.07,,,0.37,Wunderground v.1.15,2013-04-06 23:24:00,
2013-04-06 16:29:00,49.2,46.1,29.90,NW,319,3.0,7.0,89,0.04,,,0.37,Wunderground v.1.15,2013-04-06 23:29:00,
2013-04-06 16:35:00,49.3,46.2,29.90,South,182,2.0,5.0,89,0.00,,,0.37,Wunderground v.1.15,2013-04-06 23:35:00,
2013-04-06 16:40:00,49.5,46.7,29.90,SE,124,2.0,5.0,90,0.00,,,0.37,Wunderground v.1.15,2013-04-06 23:40:00,
2013-04-06 16:45:00,49.5,46.4,29.90,SW,221,3.0,5.0,89,0.00,,,0.37,Wunderground v.1.15,2013-04-06 23:45:00,
2013-04-06 16:51:00,49.5,46.4,29.90,South,172,2.0,5.0,89,0.00,,,0.37,Wunderground v.1.15,2013-04-06 23:51:00,
2013-04-06 16:57:00,49.4,46.3,29.90,SSW,212,2.0,5.0,89,0.00,,,0.37,Wunderground v.1.15,2013-04-06 23:57:00,
2013-04-06 17:02:00,49.3,45.9,29.90,WSW,257,3.0,4.0,88,0.00,,,0.37,Wunderground v.1.15,2013-04-07 00:02:00,
2013-04-06 17:08:00,49.2,46.4,29.90,WSW,257,2.0,4.0,90,0.00,,,0.37,Wunderground v.1.15,2013-04-07 00:08:00,
2013-04-06 17:14:00,49.1,46.3,29.91,SW,224,2.0,5.0,90,0.00,,,0.38,Wunderground v.1.15,2013-04-07 00:14:00,
2013-04-06 17:19:00,48.8,45.1,29.90,SW,214,3.0,7.0,87,0.11,,,0.39,Wunderground v.1.15,2013-04-07 00:19:00,
2013-04-06 17:24:00,48.5,44.8,29.90,WSW,250,4.0,5.0,87,0.07,,,0.39,Wunderground v.1.15,2013-04-07 00:24:00,
2013-04-06 17:30:00,48.0,44.3,29.89,SSE,160,3.0,3.0,87,0.04,,,0.39,Wunderground v.1.15,2013-04-07 00:30:00,
2013-04-06 17:35:00,47.9,43.9,29.89,WSW,238,2.0,3.0,86,0.00,,,0.39,Wunderground v.1.15,2013-04-07 00:35:00,
2013-04-06 17:40:00,48.0,44.6,29.88,SSE,154,1.0,1.0,88,0.00,,,0.39,Wunderground v.1.15,2013-04-07 00:40:00,
2013-04-06 17:45:00,48.1,45.0,29.88,SSE,155,1.0,4.0,89,0.00,,,0.39,Wunderground v.1.15,2013-04-07 00:45:00,
2013-04-06 17:50:00,48.1,44.7,29.88,WSW,240,1.0,2.0,88,0.00,,,0.39,Wunderground v.1.15,2013-04-07 00:50:00,
2013-04-06 17:56:00,48.3,44.9,29.88,SW,222,2.0,7.0,88,0.00,,,0.39,Wunderground v.1.15,2013-04-07 00:56:00,
2013-04-06 18:01:00,48.4,44.7,29.88,South,183,2.0,3.0,87,0.00,,,0.39,Wunderground v.1.15,2013-04-07 01:01:00,
2013-04-06 18:07:00,48.5,44.8,29.88,West,264,2.0,3.0,87,0.00,,,0.39,Wunderground v.1.15,2013-04-07 01:07:00,
2013-04-06 18:12:00,48.5,45.1,29.88,ESE,115,2.0,3.0,88,0.00,,,0.39,Wunderground v.1.15,2013-04-07 01:12:00,
2013-04-06 18:17:00,48.5,45.1,29.88,SSE,157,2.0,8.0,88,0.00,,,0.39,Wunderground v.1.15,2013-04-07 01:17:00,
2013-04-06 18:22:00,48.5,45.1,29.88,SSE,158,3.0,7.0,88,0.00,,,0.39,Wunderground v.1.15,2013-04-07 01:22:00,
2013-04-06 18:28:00,48.4,45.3,29.88,SE,141,4.0,8.0,89,0.00,,,0.39,Wunderground v.1.15,2013-04-07 01:28:00,
2013-04-06 18:34:00,48.3,45.2,29.88,SSW,210,4.0,5.0,89,0.00,,,0.39,Wunderground v.1.15,2013-04-07 01:34:00,
2013-04-06 18:39:00,48.2,45.1,29.88,South,174,4.0,8.0,89,0.00,,,0.39,Wunderground v.1.15,2013-04-07 01:39:00,
2013-04-06 18:45:00,48.1,45.3,29.88,SSE,148,3.0,5.0,90,0.00,,,0.39,Wunderground v.1.15,2013-04-07 01:45:00,
2013-04-06 18:51:00,48.0,45.2,29.88,SSW,203,3.0,4.0,90,0.00,,,0.39,Wunderground v.1.15,2013-04-07 01:51:00,
2013-04-06 18:56:00,48.0,45.2,29.87,SSE,167,3.0,4.0,90,0.00,,,0.39,Wunderground v.1.15,2013-04-07 01:56:00,
2013-04-06 19:01:00,48.0,45.2,29.87,SSE,150,3.0,3.0,90,0.00,,,0.39,Wunderground v.1.15,2013-04-07 02:01:00,
2013-04-06 19:07:00,48.0,45.2,29.87,SSE,164,5.0,8.0,90,0.00,,,0.39,Wunderground v.1.15,2013-04-07 02:07:00,
2013-04-06 19:12:00,48.0,44.9,29.87,South,175,7.0,12.0,89,0.00,,,0.39,Wunderground v.1.15,2013-04-07 02:12:00,
2013-04-06 19:18:00,47.9,44.8,29.87,SSE,153,8.0,12.0,89,0.00,,,0.39,Wunderground v.1.15,2013-04-07 02:18:00,
2013-04-06 19:23:00,47.9,44.8,29.87,WSW,251,7.0,11.0,89,0.00,,,0.39,Wunderground v.1.15,2013-04-07 02:23:00,
2013-04-06 19:29:00,47.8,45.0,29.86,SSW,193,6.0,11.0,90,0.00,,,0.39,Wunderground v.1.15,2013-04-07 02:29:00,
2013-04-06 19:35:00,47.6,44.8,29.86,SW,216,4.0,8.0,90,0.00,,,0.39,Wunderground v.1.15,2013-04-07 02:35:00,
2013-04-06 19:40:00,47.6,44.8,29.86,SSW,203,6.0,6.0,90,0.00,,,0.39,Wunderground v.1.15,2013-04-07 02:40:00,
2013-04-06 19:46:00,47.6,44.8,29.86,SSW,210,5.0,7.0,90,0.00,,,0.39,Wunderground v.1.15,2013-04-07 02:46:00,
2013-04-06 19:52:00,47.4,44.6,29.85,SW,214,3.0,4.0,90,0.00,,,0.39,Wunderground v.1.15,2013-04-07 02:52:00,
2013-04-06 19:57:00,47.2,44.4,29.85,WSW,252,2.0,4.0,90,0.00,,,0.39,Wunderground v.1.15,2013-04-07 02:57:00,
2013-04-06 20:03:00,47.1,44.3,29.86,SW,230,1.0,1.0,90,0.00,,,0.39,Wunderground v.1.15,2013-04-07 03:03:00,
2013-04-06 20:09:00,46.9,44.4,29.86,SSW,213,1.0,4.0,91,0.00,,,0.39,Wunderground v.1.15,2013-04-07 03:09:00,
2013-04-06 20:15:00,46.8,44.0,29.85,South,191,2.0,6.0,90,0.00,,,0.39,Wunderground v.1.15,2013-04-07 03:15:00,
2013-04-06 20:20:00,46.8,43.7,29.86,WSW,238,2.0,6.0,89,0.00,,,0.39,Wunderground v.1.15,2013-04-07 03:20:00,
2013-04-06 20:26:00,46.8,44.0,29.86,South,172,3.0,6.0,90,0.00,,,0.39,Wunderground v.1.15,2013-04-07 03:26:00,
2013-04-06 20:32:00,46.7,43.9,29.86,South,177,3.0,3.0,90,0.00,,,0.39,Wunderground v.1.15,2013-04-07 03:32:00,
2013-04-06 20:38:00,46.7,44.2,29.85,SSW,197,3.0,6.0,91,0.00,,,0.39,Wunderground v.1.15,2013-04-07 03:38:00,
2013-04-06 20:44:00,46.6,44.1,29.85,SSE,158,3.0,7.0,91,0.00,,,0.39,Wunderground v.1.15,2013-04-07 03:44:00,
2013-04-06 20:50:00,46.5,44.3,29.85,South,178,3.0,3.0,92,0.00,,,0.39,Wunderground v.1.15,2013-04-07 03:50:00,
2013-04-06 20:55:00,46.5,44.0,29.85,SE,140,1.0,3.0,91,0.00,,,0.39,Wunderground v.1.15,2013-04-07 03:55:00,
2013-04-06 21:00:00,46.4,43.9,29.85,SSE,151,1.0,1.0,91,0.00,,,0.39,Wunderground v.1.15,2013-04-07 04:00:00,
2013-04-06 21:01:00,46.4,43.9,29.85,SW,215,1.0,1.0,91,0.00,,,0.39,Wunderground v.1.15,2013-04-07 04:01:00,
2013-04-06 21:04:00,46.5,43.7,29.85,West,278,1.0,5.0,90,0.00,,,0.39,Wunderground v.1.15,2013-04-07 04:04:00,
2013-04-06 21:06:00,46.5,43.7,29.85,East,79,1.0,5.0,90,0.00,,,0.39,Wunderground v.1.15,2013-04-07 04:06:00,
2013-04-06 21:11:00,46.5,43.7,29.85,South,172,2.0,2.0,90,0.00,,,0.39,Wunderground v.1.15,2013-04-07 04:11:00,
2013-04-06 21:16:00,46.6,43.5,29.84,SW,231,2.0,2.0,89,0.00,,,0.39,Wunderground v.1.15,2013-04-07 04:16:00,
2013-04-06 21:22:00,46.6,43.2,29.84,SW,226,2.0,6.0,88,0.00,,,0.39,Wunderground v.1.15,2013-04-07 04:22:00,
2013-04-06 21:28:00,46.7,43.0,29.84,SW,224,3.0,6.0,87,0.00,,,0.39,Wunderground v.1.15,2013-04-07 04:28:00,
2013-04-06 21:33:00,46.6,43.2,29.84,West,261,2.0,3.0,88,0.00,,,0.39,Wunderground v.1.15,2013-04-07 04:33:00,
2013-04-06 21:39:00,46.5,43.1,29.84,SSE,149,2.0,3.0,88,0.00,,,0.39,Wunderground v.1.15,2013-04-07 04:39:00,
2013-04-06 21:45:00,46.4,43.3,29.84,South,179,1.0,2.0,89,0.00,,,0.39,Wunderground v.1.15,2013-04-07 04:45:00,
2013-04-06 21:51:00,46.5,43.1,29.84,SSE,163,2.0,6.0,88,0.00,,,0.39,Wunderground v.1.15,2013-04-07 04:51:00,
2013-04-06 21:57:00,46.6,43.5,29.83,SSW,210,4.0,6.0,89,0.00,,,0.39,Wunderground v.1.15,2013-04-07 04:57:00,
2013-04-06 22:02:00,46.5,43.4,29.83,SW,226,3.0,4.0,89,0.00,,,0.39,Wunderground v.1.15,2013-04-07 05:02:00,
2013-04-06 22:07:00,46.5,43.7,29.83,WSW,250,3.0,6.0,90,0.00,,,0.39,Wunderground v.1.15,2013-04-07 05:07:00,
2013-04-06 22:12:00,46.4,43.6,29.83,SSE,152,3.0,3.0,90,0.00,,,0.39,Wunderground v.1.15,2013-04-07 05:12:00,
2013-04-06 22:18:00,46.3,43.8,29.83,South,169,1.0,3.0,91,0.00,,,0.39,Wunderground v.1.15,2013-04-07 05:18:00,
2013-04-06 22:24:00,46.3,43.8,29.83,SSW,195,1.0,4.0,91,0.00,,,0.39,Wunderground v.1.15,2013-04-07 05:24:00,
2013-04-06 22:30:00,46.2,43.7,29.83,South,178,1.0,1.0,91,0.00,,,0.39,Wunderground v.1.15,2013-04-07 05:30:00,
2013-04-06 22:35:00,46.2,43.7,29.82,SW,219,2.0,4.0,91,0.00,,,0.39,Wunderground v.1.15,2013-04-07 05:35:00,
2013-04-06 22:41:00,46.1,43.6,29.82,SE,145,3.0,5.0,91,0.00,,,0.39,Wunderground v.1.15,2013-04-07 05:41:00,
2013-04-06 22:46:00,46.0,43.8,29.82,SW,229,2.0,5.0,92,0.00,,,0.39,Wunderground v.1.15,2013-04-07 05:46:00,
2013-04-06 22:51:00,45.8,43.6,29.82,WNW,285,3.0,3.0,92,0.00,,,0.39,Wunderground v.1.15,2013-04-07 05:51:00,
2013-04-06 22:57:00,45.7,43.2,29.82,WNW,290,3.0,6.0,91,0.00,,,0.39,Wunderground v.1.15,2013-04-07 05:57:00,
2013-04-06 23:02:00,45.7,43.5,29.82,SSE,168,3.0,3.0,92,0.00,,,0.39,Wunderground v.1.15,2013-04-07 06:02:00,
2013-04-06 23:07:00,45.5,43.3,29.81,SW,236,2.0,4.0,92,0.00,,,0.39,Wunderground v.1.15,2013-04-07 06:07:00,
2013-04-06 23:12:00,45.5,43.3,29.81,SSW,212,1.0,2.0,92,0.00,,,0.39,Wunderground v.1.15,2013-04-07 06:12:00,
2013-04-06 23:17:00,45.4,43.2,29.81,West,264,2.0,2.0,92,0.00,,,0.39,Wunderground v.1.15,2013-04-07 06:17:00,
2013-04-06 23:23:00,45.3,43.1,29.80,SSW,203,1.0,2.0,92,0.00,,,0.39,Wunderground v.1.15,2013-04-07 06:23:00,
2013-04-06 23:28:00,45.3,43.1,29.80,SW,232,2.0,4.0,92,0.00,,,0.39,Wunderground v.1.15,2013-04-07 06:28:00,
2013-04-06 23:34:00,45.2,43.0,29.79,WSW,242,1.0,2.0,92,0.00,,,0.39,Wunderground v.1.15,2013-04-07 06:34:00,
2013-04-06 23:39:00,45.1,43.2,29.79,SW,224,1.0,2.0,93,0.00,,,0.40,Wunderground v.1.15,2013-04-07 06:39:00,
2013-04-06 23:44:00,45.0,43.1,29.79,SW,224,0.0,1.0,93,0.00,,,0.40,Wunderground v.1.15,2013-04-07 06:44:00,
2013-04-06 23:50:00,44.9,43.3,29.79,WSW,246,0.0,0.0,94,0.00,,,0.40,Wunderground v.1.15,2013-04-07 06:50:00,
2013-04-06 23:56:00,44.9,43.3,29.78,South,174,1.0,2.0,94,0.04,,,0.41,Wunderground v.1.15,2013-04-07 06:56:00,